Tracking 17939 objects as of 25-February-2017
HD Live streaming from Space Station
objects crossing your sky now

CZ-4 DEB

Track CZ-4 DEB now!
10-day predictions


NORAD ID: 26650
Int'l Code: 1999-057LG
Perigee: 631.6 km
Apogee: 647.8 km
Inclination: 98.5 °
Period: 97.4 minutes
Semi major axis: 7010 km
RCS: 0.0056 m2 (small)
Launch date: October 14, 1999
Source: People's Republic of China (PRC)
Launch site: Taiyaun Space Center, China (TSC)

Note: This is SATELLITE DEBRIS
Your satellite tracking list
Your tracking list is empty





NASA's NSSDC Master Catalog

Two Line Element Set (TLE):
1 26650U 99057LG  17053.72482774 +.00000712 +00000-0 +10429-3 0  9995
2 26650 098.5349 131.8233 0011529 191.8032 299.4266 14.78967949893183
Source of the keplerian elements: AFSPC